Regional Weather Roundup
Issued by NWS

Home | Current Version | Previous Version | Graphics & Text | Print | Product List | Glossary On
Versions: 1 2 3 4 5 6 7 8 9 10 11 12 13 14 15 16 17 18 19 20 21 22 23 24 25 26 27 28 29 30 31 32 33 34 35 36 37 38 39 40 41 42 43 44 45 46 47 48 49 50
000
ASUS45 KBOU 212207
RWRCO

WEATHER ROUNDUP FOR COLORADO
NATIONAL WEATHER SERVICE DENVER/BOULDER CO
400 PM MDT MON AUG 21 2017

NOTE: "FAIR" INDICATES FEW OR NO CLOUDS BELOW 12000 FEET WITH NO
SIGNIFICANT WEATHER AND/OR OBSTRUCTIONS TO VISIBILITY.

COZ001>005-013-030-031-212300-
...NORTHWEST COLORADO...

CITY           SKY/WX    TMP DP  RH WIND       PRES   REMARKS
CRAIG          FAIR      84  25  11 S6        30.21F
HAYDEN         FAIR      84  32  15 VRB7      30.25F
MEEKER         FAIR      85  32  15 W6        30.22F
RABBIT EARS PA FAIR      64  30  27 CALM      30.57S
STEAMBOAT SPGS FAIR      80  31  17 W8        30.26S
WALDEN         NOT AVBL
$$

COZ006>008-011-212300-
...WEST CENTRAL VALLEYS...

CITY           SKY/WX    TMP DP  RH WIND       PRES   REMARKS
GRAND JUNCTION FAIR      93  39  15 W12       30.08F
MONTROSE       FAIR      86  40  19 VRB5      30.16F
EAGLE          PTSUNNY   81  35  19 W12G18    30.25S
RIFLE          FAIR      89  32  13 E5        30.13S
DELTA          FAIR      94  35  12 SW8       30.10F
NUCLA          FAIR      88  34  14 NW8       30.20F
$$

COZ017>023-064>068-212300-
...SOUTHWEST COLORADO...

CITY           SKY/WX    TMP DP  RH WIND       PRES   REMARKS
DURANGO        FAIR      78  42  27 VRB3      30.25F
CORTEZ         FAIR      86  46  24 W8        30.18F
PAGOSA SPRINGS FAIR      76  38  25 S6G16     30.32F
TELLURIDE      FAIR      73  34  23 NE3       30.42S THUNDER
WOLF CREEK PAS CLOUDY    54  34  47 NW8       30.67S THUNDER
$$

COZ009-010-012-014-032>034-037-058>063-212300-
...CENTRAL COLORADO...

CITY           SKY/WX    TMP DP  RH WIND       PRES   REMARKS
ASPEN          FAIR      77  32  19 VRB5      30.29F
BUENA VISTA    RAIN      58  46  64 NW16G29   30.42R
COPPER MTN     FAIR      64  27  24 N6        30.66S
BERTHOUD PASS  CLOUDY    45  41  87 SE6G24    30.71S
COTTONWOOD PAS LGT RAIN  61  37  41 CALM      30.55R
GUNNISON       FAIR      69  41  36 E21G30    30.32R
KREMMLING      FAIR      88  23   9 N6        30.31F
LEADVILLE      CLOUDY    64  36  35 S16G22    30.50R
MONARCH PASS   CLOUDY    54  32  43 E29G37    30.74S
SALIDA         CLOUDY    63  46  52 CALM      30.44R VSB 3/4
SUNLIGHT       PTSUNNY   57  34  41 N6        30.60R
WILKERSON PASS CLOUDY    59  32  36 E6        30.64S
$$

COZ069>075-212300-
...SAN LUIS VALLEY/SANGRE DE CRISTO MOUNTAINS...

CITY           SKY/WX    TMP DP  RH WIND       PRES   REMARKS
ALAMOSA        FAIR      77  40  26 SW8       30.27F
DEL NORTE      FAIR      76  38  25 SE10      30.31F
LA VETA PASS   NOT AVBL
SAGUACHE       PTSUNNY   70  46  43 NE16G24   30.33R
$$

COZ035-036-038>040-212300-
...NORTHERN COLORADO FRONT RANGE...

CITY           SKY/WX    TMP DP  RH WIND       PRES   REMARKS
DENVER INTL AP FAIR      87  39  18 N20       30.18S
DMNS CITY PARK   N/A     84  40  20 N12G22    30.18S
AURORA         PTSUNNY   85  42  22 N10       30.20S
FRONT RANGE AP FAIR      86  37  17 NE13G26   30.19S
ERIE MUNI ARPT FAIR      83  36  18 N5        30.22S
BOULDER MUN AP FAIR      82  45  26 E7        30.18S
CENTENNIAL     PTSUNNY   83  38  20 N16       30.22R
BROOMFIELD     PTSUNNY   82  41  23 NE12      30.22S
FORT COLLINS   FAIR      86  43  22 E8        30.17R
LONGMONT       FAIR      89  44  20 NE5       30.18S
$$

COZ041-046-047-076>085-087-088-212300-
...PIKES PEAK/PALMER DIVIDE AND SOUTHERN FOOTHILLS...

CITY           SKY/WX    TMP DP  RH WIND       PRES   REMARKS
COLO. SPRINGS  FAIR      82  45  27 NE16      30.22R
A. F. ACADEMY  FAIR      81  38  21 N18G28    30.24R
SCHRIEVER AFB  FAIR      82  40  23 N13G23    30.23R
CHEYENNE MTN   PTSUNNY   75  37  25 N12       30.22S
ELLICOTT       FAIR       1  32 100 N15G25    30.21R WCI -18
FALCON         FAIR      78  37  22 N6G23     30.29R
FORT CARSON    PTSUNNY   81  46  28 NE10      30.18S
LIMON          FAIR      85  47  26 N17G24    30.15S
MONUMENT HILL  FAIR      75  39  27 N17       30.32R
CANON CITY     SUNNY     88  54  31 E10       30.14S
WALSENBURG     FAIR      86  43  22 N10       30.19S
TRINIDAD       FAIR      84  45  25 CALM      30.16F
$$

COZ042>045-048>051-090-091-212300-
...NORTHEAST COLORADO...

CITY           SKY/WX    TMP DP  RH WIND       PRES   REMARKS
GREELEY ARPT   FAIR      86  50  28 NE10      30.14S
AKRON          FAIR      85  55  35 N17G28    30.12R
BURLINGTON     FAIR      89  62  40 N12       30.05R
WRAY           NOT AVBL
YUMA           FAIR      82  48  30 N15G24    30.07R
STERLING       FAIR      84  59  42 NE15G23   30.08S
HOLYOKE        FAIR      86  61  42 N17G24    30.05R
FORT MORGAN    FAIR      86  49  27 NE18G26   30.13R
$$

COZ086-089-092>099-212300-
...SOUTHEAST COLORADO...

CITY           SKY/WX    TMP DP  RH WIND       PRES   REMARKS
PUEBLO         FAIR      93  48  21 E14       30.08S
LA JUNTA       FAIR      88  53  30 SW6       30.04F
LAMAR          FAIR      88  52  29 NW6       30.00S
SPRINGFIELD      N/A     85  61  44 S14G21    30.07S
$$



USA.gov is the U.S. government's official web portal to all federal, state and local government web resources and services.